GW0672 Weather Reports


Display with metric or nautical units.
time (UTC)temp
F
wind
direction
speed
MPH
gust
MPH
rain 1hr
in
rain 24hr
in
rain mn
in
humidity
%
barometer
mb
20260509011624 54 286 0.0 0.0 0.00 0.00 0.00 45 1008.8
20260509011121 55 286 0.0 0.0 0.00 0.00 0.00 42 1008.7
20260509010618 57 286 0.0 0.0 0.00 0.00 0.00 38 1008.7
20260509010114 58 286 0.0 0.0 0.00 0.00 0.00 37 1008.6
20260509005612 58 301 1.0 2.0 0.00 0.00 0.00 34 1008.6
20260509005108 59 301 0.0 0.0 0.00 0.00 0.00 34 1008.4
20260509004604 59 300 0.0 2.0 0.00 0.00 0.00 33 1008.5
20260509004101 59 280 4.0 5.0 0.00 0.00 0.00 33 1008.6
20260509003600 58 300 2.0 3.0 0.00 0.00 0.00 34 1008.4
20260509003057 58 303 0.0 0.0 0.00 0.00 0.00 41 1008.3
20260509002554 59 303 0.0 0.0 0.00 0.00 0.00 40 1008.4
20260509002051 60 303 0.0 0.0 0.00 0.00 0.00 33 1008.2
20260509001549 61 306 1.0 2.0 0.00 0.00 0.00 32 1008.1
20260509001044 62 306 2.0 2.0 0.00 0.00 0.00 31 1008.1
20260509000543 63 285 3.0 5.0 0.00 0.00 0.00 30 1008.2
20260509000038 64 288 3.0 3.0 0.00 0.00 0.00 30 1008.0
20260508235537 64 288 0.0 0.0 0.00 0.00 0.00 28 1008.0
20260508235032 64 304 1.0 2.0 0.00 0.00 0.00 29 1008.0
20260508234530 64 288 2.0 2.0 0.00 0.00 0.00 29 1007.9
20260508234026 64 304 5.0 6.0 0.00 0.00 0.00 29 1008.1
20260508233521 64 304 1.0 2.0 0.00 0.00 0.00 30 1008.1
20260508233017 64 294 2.0 3.0 0.00 0.00 0.00 29 1008.0
20260508232514 64 303 3.0 3.0 0.00 0.00 0.00 29 1008.1
20260508232011 64 280 2.0 3.0 0.00 0.00 0.00 29 1007.9
20260508231509 64 283 5.0 9.0 0.00 0.00 0.00 29 1007.9
20260508231006 64 265 5.0 6.0 0.00 0.00 0.00 29 1008.2
20260508230503 64 299 5.0 7.0 0.00 0.00 0.00 28 1007.9
20260508225959 65 296 4.0 5.0 0.00 0.00 0.00 28 1008.1
20260508225456 65 301 2.0 3.0 0.00 0.00 0.00 28 1008.1
20260508224953 65 301 7.0 9.0 0.00 0.00 0.00 28 1008.2
20260508224451 65 281 3.0 5.0 0.00 0.00 0.00 30 1008.1
20260508223948 65 316 3.0 6.0 0.00 0.00 0.00 29 1008.3
20260508223446 65 307 4.0 6.0 0.00 0.00 0.00 30 1008.3
20260508222943 65 261 5.0 6.0 0.00 0.00 0.00 29 1008.2
20260508222440 64 304 0.0 2.0 0.00 0.00 0.00 30 1008.3
20260508221936 65 300 6.0 7.0 0.00 0.00 0.00 30 1008.4
20260508221433 65 283 4.0 6.0 0.00 0.00 0.00 32 1008.4
20260508220929 65 285 3.0 3.0 0.00 0.00 0.00 32 1008.6
20260508220426 65 242 2.0 3.0 0.00 0.00 0.00 30 1008.2
20260508215922 65 301 0.0 2.0 0.00 0.00 0.00 30 1008.5
20260508215419 65 261 5.0 6.0 0.00 0.00 0.00 32 1008.6
20260508214915 65 277 3.0 3.0 0.00 0.00 0.00 32 1008.5
20260508214413 65 309 2.0 3.0 0.00 0.00 0.00 32 1008.6
20260508213909 65 289 4.0 6.0 0.00 0.00 0.00 32 1008.5
20260508213407 64 285 6.0 7.0 0.00 0.00 0.00 30 1008.7
20260508212902 64 291 9.0 10.0 0.00 0.00 0.00 30 1008.7
20260508212359 66 356 3.0 5.0 0.00 0.00 0.00 31 1008.6
20260508211855 65 9 1.0 2.0 0.00 0.00 0.00 32 1008.8
20260508211350 66 17 4.0 5.0 0.00 0.00 0.00 30 1008.6
20260508210848 65 28 2.0 3.0 0.00 0.00 0.00 29 1008.9
20260508210344 64 288 4.0 5.0 0.00 0.00 0.00 31 1009.0
20260508205841 64 274 5.0 7.0 0.00 0.00 0.00 32 1009.0
20260508205338 64 287 1.0 3.0 0.00 0.00 0.00 32 1009.0
20260508204834 63 260 3.0 3.0 0.00 0.00 0.00 33 1009.0
20260508204331 64 312 9.0 12.0 0.00 0.00 0.00 30 1009.0
20260508203827 63 315 3.0 5.0 0.00 0.00 0.00 30 1009.3
20260508203323 64 273 5.0 7.0 0.00 0.00 0.00 32 1009.2
20260508202819 65 239 6.0 7.0 0.00 0.00 0.00 31 1009.3
20260508202317 65 294 1.0 5.0 0.00 0.00 0.00 31 1009.4
20260508201814 63 287 1.0 2.0 0.00 0.00 0.00 32 1009.4
20260508201311 63 311 2.0 2.0 0.00 0.00 0.00 31 1009.5
20260508200807 62 277 6.0 7.0 0.00 0.00 0.00 33 1009.5
20260508200303 62 284 6.0 7.0 0.00 0.00 0.00 31 1009.7
20260508195759 63 279 5.0 9.0 0.00 0.00 0.00 32 1010.0
20260508195256 63 209 4.0 6.0 0.00 0.00 0.00 33 1009.9
20260508194752 63 246 4.0 5.0 0.00 0.00 0.00 33 1010.2
20260508194250 62 254 6.0 7.0 0.00 0.00 0.00 34 1010.3
20260508193747 62 258 4.0 5.0 0.00 0.00 0.00 34 1010.2
20260508193243 62 277 1.0 2.0 0.00 0.00 0.00 34 1010.3
20260508192740 61 296 5.0 6.0 0.00 0.00 0.00 35 1010.4
20260508192237 61 292 4.0 5.0 0.00 0.00 0.00 34 1010.5
20260508191734 62 310 7.0 9.0 0.00 0.00 0.00 34 1010.2
20260508191231 62 282 3.0 5.0 0.00 0.00 0.00 34 1010.3
20260508190728 61 275 3.0 3.0 0.00 0.00 0.00 37 1010.7
20260508190224 60 296 3.0 5.0 0.00 0.00 0.00 40 1010.7
20260508185721 61 311 6.0 7.0 0.00 0.00 0.00 34 1010.8
20260508185219 62 273 7.0 9.0 0.00 0.00 0.00 33 1010.8
20260508184715 61 268 8.0 10.0 0.00 0.00 0.00 34 1010.7
20260508184213 61 273 3.0 5.0 0.00 0.00 0.00 35 1010.8
20260508183709 62 317 4.0 5.0 0.00 0.00 0.00 36 1011.1
20260508183206 61 316 3.0 5.0 0.00 0.00 0.00 34 1010.9
20260508182701 61 277 2.0 2.0 0.00 0.00 0.00 34 1011.0
20260508182158 61 257 2.0 3.0 0.00 0.00 0.00 35 1011.1
20260508181654 60 295 3.0 3.0 0.00 0.00 0.00 33 1011.1
20260508181151 60 350 4.0 6.0 0.00 0.00 0.00 33 1011.2
20260508180648 60 294 5.0 7.0 0.00 0.00 0.00 33 1011.2
20260508180145 60 275 4.0 5.0 0.00 0.00 0.00 33 1011.4
20260508175642 60 245 7.0 9.0 0.00 0.00 0.00 33 1011.3
20260508175138 60 287 4.0 5.0 0.00 0.00 0.00 32 1011.5
20260508174636 60 280 1.0 3.0 0.00 0.00 0.00 33 1011.8
20260508174132 60 295 5.0 7.0 0.00 0.00 0.00 34 1011.9
20260508173629 59 298 1.0 2.0 0.00 0.00 0.00 36 1012.0
20260508173126 60 178 4.0 6.0 0.00 0.00 0.00 34 1012.1
20260508172623 60 293 0.0 2.0 0.00 0.00 0.00 37 1011.9
20260508172119 59 299 2.0 3.0 0.00 0.00 0.00 32 1012.1
20260508171616 60 269 8.0 12.0 0.00 0.00 0.00 34 1012.1
20260508171113 59 264 4.0 5.0 0.00 0.00 0.00 33 1012.2
20260508170610 60 338 2.0 3.0 0.00 0.00 0.00 33 1012.2
20260508170107 59 271 2.0 3.0 0.00 0.00 0.00 31 1012.3
20260508165604 59 293 7.0 9.0 0.00 0.00 0.00 31 1012.5
20260508165101 59 358 1.0 2.0 0.00 0.00 0.00 32 1012.3
20260508164557 59 261 4.0 6.0 0.00 0.00 0.00 35 1012.4
20260508164054 59 275 4.0 5.0 0.00 0.00 0.00 31 1012.7
20260508163552 58 293 5.0 9.0 0.00 0.00 0.00 34 1012.7
20260508163048 59 257 6.0 7.0 0.00 0.00 0.00 32 1013.1
20260508162545 58 296 0.0 2.0 0.00 0.00 0.00 34 1012.7
20260508162042 58 272 5.0 7.0 0.00 0.00 0.00 32 1012.9
20260508161539 59 263 2.0 3.0 0.00 0.00 0.00 36 1012.8
20260508161036 58 321 3.0 5.0 0.00 0.00 0.00 33 1013.0
20260508160535 58 254 4.0 5.0 0.00 0.00 0.00 34 1013.1
20260508160031 57 289 5.0 7.0 0.00 0.00 0.00 34 1012.9
20260508155528 57 294 1.0 2.0 0.00 0.00 0.00 34 1013.1
20260508155025 57 338 2.0 3.0 0.00 0.00 0.00 35 1013.0
20260508154523 57 287 5.0 6.0 0.00 0.00 0.00 32 1013.0
20260508154019 58 242 5.0 6.0 0.00 0.00 0.00 36 1013.0
20260508153516 57 76 2.0 3.0 0.00 0.00 0.00 35 1012.9
20260508153012 56 269 4.0 6.0 0.00 0.00 0.00 35 1013.0
20260508152509 56 283 1.0 2.0 0.00 0.00 0.00 40 1013.0
20260508152005 55 298 2.0 5.0 0.00 0.00 0.00 36 1013.1
20260508151502 56 279 3.0 5.0 0.00 0.00 0.00 36 1013.2
20260508150958 56 263 5.0 7.0 0.00 0.00 0.00 36 1013.3
20260508150456 55 293 5.0 6.0 0.00 0.00 0.00 36 1013.5
20260508145951 55 282 3.0 6.0 0.00 0.00 0.00 35 1013.2
20260508145448 56 275 3.0 3.0 0.00 0.00 0.00 42 1013.3
20260508144944 55 260 0.0 2.0 0.00 0.00 0.00 41 1013.5
20260508144442 54 272 3.0 3.0 0.00 0.00 0.00 45 1013.2
20260508143940 54 297 4.0 5.0 0.00 0.00 0.00 40 1013.6
20260508143437 54 294 3.0 3.0 0.00 0.00 0.00 47 1013.4
20260508142933 54 288 6.0 7.0 0.00 0.00 0.00 42 1013.5
20260508142431 53 280 2.0 2.0 0.00 0.00 0.00 47 1013.5
20260508141927 54 302 1.0 2.0 0.00 0.00 0.00 46 1013.5
20260508141424 55 283 3.0 5.0 0.00 0.00 0.00 43 1013.7
20260508140921 55 291 0.0 0.0 0.00 0.00 0.00 47 1013.7
20260508140418 53 284 0.0 0.0 0.00 0.00 0.00 50 1013.8
20260508135914 52 290 3.0 3.0 0.00 0.00 0.00 53 1013.9
20260508135411 52 281 4.0 5.0 0.00 0.00 0.00 53 1013.8
20260508134907 52 280 2.0 3.0 0.00 0.00 0.00 53 1013.7
20260508134403 52 301 3.0 3.0 0.00 0.00 0.00 54 1014.0
20260508133900 51 280 3.0 3.0 0.00 0.00 0.00 55 1013.9
20260508133358 51 284 0.0 2.0 0.00 0.00 0.00 55 1013.7
20260508132854 51 282 1.0 2.0 0.00 0.00 0.00 57 1013.7
20260508132353 51 293 1.0 2.0 0.00 0.00 0.00 58 1013.8
20260508131849 50 270 0.0 2.0 0.00 0.00 0.00 56 1013.9
20260508131344 50 275 2.0 3.0 0.00 0.00 0.00 62 1014.0
20260508130841 50 282 3.0 5.0 0.00 0.00 0.00 62 1014.0
20260508130338 50 295 2.0 3.0 0.00 0.00 0.00 61 1013.7
20260508125834 50 274 3.0 3.0 0.00 0.00 0.00 62 1013.9
20260508125331 49 304 0.0 0.0 0.00 0.00 0.00 63 1013.8
20260508124829 48 276 4.0 5.0 0.00 0.00 0.00 66 1013.9
20260508124325 48 272 4.0 5.0 0.00 0.00 0.00 67 1013.9
20260508123824 48 277 3.0 5.0 0.00 0.00 0.00 70 1013.9
20260508123322 47 308 0.0 0.0 0.00 0.00 0.00 73 1014.0
20260508122818 47 290 0.0 2.0 0.00 0.00 0.00 75 1013.9
20260508122315 46 300 0.0 0.0 0.00 0.00 0.00 77 1013.6
20260508121812 46 301 0.0 0.0 0.00 0.00 0.00 79 1013.7
20260508121311 44 304 0.0 0.0 0.00 0.00 0.00 82 1013.6
20260508120808 43 299 0.0 0.0 0.00 0.00 0.00 88 1013.5
20260508120306 42 297 0.0 0.0 0.00 0.00 0.00 92 1013.3
20260508115803 42 284 0.0 0.0 0.00 0.00 0.00 97 1013.4
20260508115300 41 284 0.0 0.0 0.00 0.00 0.00 98 1013.5
20260508114756 41 284 0.0 0.0 0.00 0.00 0.00 99 1013.3
20260508114253 40 285 0.0 0.0 0.00 0.00 0.00 99 1013.3
20260508113749 40 285 0.0 0.0 0.00 0.00 0.00 99 1013.4
20260508113249 39 284 0.0 0.0 0.00 0.00 0.00 99 1013.0
20260508112744 37 285 0.0 0.0 0.00 0.00 0.00 99 1013.2
20260508112241 36 284 0.0 0.0 0.00 0.00 0.00 99 1013.1
20260508111738 36 285 0.0 0.0 0.00 0.00 0.00 99 1013.2
20260508111236 35 284 0.0 0.0 0.00 0.00 0.00 99 1013.0
20260508110733 35 284 0.0 0.0 0.00 0.00 0.00 99 1013.2
20260508110230 35 284 0.0 0.0 0.00 0.00 0.00 99 1013.0
20260508105724 35 284 0.0 0.0 0.00 0.00 0.00 99 1013.2
20260508105221 35 284 0.0 0.0 0.00 0.00 0.00 99 1012.9
20260508104718 34 284 0.0 0.0 0.00 0.00 0.00 99 1013.2
20260508104215 33 284 0.0 0.0 0.00 0.00 0.00 99 1013.2
20260508103713 33 284 0.0 0.0 0.00 0.00 0.00 99 1013.0
20260508103209 33 284 0.0 0.0 0.00 0.00 0.00 99 1013.0
20260508102706 33 284 0.0 0.0 0.00 0.00 0.00 99 1013.2
20260508102205 33 284 0.0 0.0 0.00 0.00 0.00 99 1013.2
20260508101701 33 284 0.0 0.0 0.00 0.00 0.00 99 1013.2
20260508101159 34 284 0.0 0.0 0.00 0.00 0.00 99 1013.1
20260508100656 34 284 0.0 0.0 0.00 0.00 0.00 99 1013.1
20260508100154 34 284 0.0 0.0 0.00 0.00 0.00 99 1013.1
20260508095650 34 284 0.0 0.0 0.00 0.00 0.00 99 1013.3
20260508095148 35 284 0.0 0.0 0.00 0.00 0.00 99 1013.2
20260508094644 34 284 0.0 0.0 0.00 0.00 0.00 99 1013.2
20260508094141 34 284 0.0 0.0 0.00 0.00 0.00 99 1013.2
20260508093639 34 284 0.0 0.0 0.00 0.00 0.00 99 1013.3
20260508093136 34 284 0.0 0.0 0.00 0.00 0.00 99 1013.1
20260508092633 35 284 0.0 0.0 0.00 0.00 0.00 99 1013.2
20260508092132 35 284 0.0 0.0 0.00 0.00 0.00 99 1013.3
20260508091628 35 284 0.0 0.0 0.00 0.00 0.00 99 1013.2
20260508091126 35 284 0.0 0.0 0.00 0.00 0.00 99 1013.2
20260508090623 35 284 0.0 0.0 0.00 0.00 0.00 98 1013.1
20260508090121 35 284 0.0 0.0 0.00 0.00 0.00 98 1013.3
20260508085616 35 284 0.0 0.0 0.00 0.00 0.00 97 1013.4
20260508085114 35 284 0.0 0.0 0.00 0.00 0.00 97 1013.3
20260508084610 36 284 0.0 0.0 0.00 0.00 0.00 97 1013.6
20260508084108 36 284 0.0 0.0 0.00 0.00 0.00 97 1013.5
20260508083605 36 284 0.0 0.0 0.00 0.00 0.00 97 1013.4
20260508083102 36 284 0.0 0.0 0.00 0.00 0.00 97 1013.6
20260508082557 36 284 0.0 0.0 0.00 0.00 0.00 96 1013.6
20260508082055 37 284 0.0 0.0 0.00 0.00 0.00 96 1013.5
20260508081552 37 284 0.0 0.0 0.00 0.00 0.00 96 1013.4
20260508081048 37 284 0.0 0.0 0.00 0.00 0.00 95 1013.4
20260508080546 37 284 0.0 0.0 0.00 0.00 0.00 95 1013.5
20260508080043 38 284 0.0 0.0 0.00 0.00 0.00 95 1013.5
20260508075540 38 284 0.0 0.0 0.00 0.00 0.00 95 1013.4
20260508075037 38 284 0.0 0.0 0.00 0.00 0.00 94 1013.4
20260508074535 38 284 0.0 0.0 0.00 0.00 0.00 94 1013.6
20260508074032 38 283 0.0 0.0 0.00 0.00 0.00 93 1013.4
20260508073529 38 283 0.0 0.0 0.00 0.00 0.00 93 1013.3
20260508073027 39 283 0.0 0.0 0.00 0.00 0.00 92 1013.2
20260508072522 39 283 0.0 0.0 0.00 0.00 0.00 92 1013.1
20260508072020 40 283 0.0 0.0 0.00 0.00 0.00 91 1013.3
20260508071517 40 283 0.0 0.0 0.00 0.00 0.00 90 1013.1
20260508071015 41 283 0.0 0.0 0.00 0.00 0.00 89 1013.2
20260508070512 41 283 0.0 0.0 0.00 0.00 0.00 89 1013.3
20260508070011 41 283 0.0 0.0 0.00 0.00 0.00 88 1013.3
20260508065508 42 282 0.0 0.0 0.00 0.00 0.00 87 1013.3
20260508065006 42 283 0.0 0.0 0.00 0.00 0.00 88 1013.2
20260508064503 42 283 0.0 0.0 0.00 0.00 0.00 89 1013.4
20260508064001 42 282 0.0 0.0 0.00 0.00 0.00 88 1013.4
20260508063458 42 283 0.0 0.0 0.00 0.00 0.00 86 1013.5
20260508062956 42 283 0.0 0.0 0.00 0.00 0.00 85 1013.6
20260508062453 42 283 0.0 0.0 0.00 0.00 0.00 86 1013.7
20260508061949 43 282 0.0 0.0 0.00 0.00 0.00 87 1013.5
20260508061448 43 282 0.0 0.0 0.00 0.00 0.00 84 1013.7
20260508060943 43 282 0.0 0.0 0.00 0.00 0.00 84 1013.9
20260508060441 43 282 0.0 0.0 0.00 0.00 0.00 85 1013.8
20260508055937 43 282 0.0 0.0 0.00 0.00 0.00 84 1014.0
20260508055434 42 283 0.0 0.0 0.00 0.00 0.00 84 1014.0
20260508054930 42 283 0.0 0.0 0.00 0.00 0.00 84 1013.8
20260508054428 43 283 0.0 0.0 0.00 0.00 0.00 84 1013.9
20260508053924 42 283 0.0 0.0 0.00 0.00 0.00 84 1013.8
20260508053421 43 282 0.0 2.0 0.00 0.00 0.00 85 1013.5
20260508052919 43 259 0.0 0.0 0.00 0.00 0.00 81 1014.0
20260508052417 43 259 0.0 0.0 0.00 0.00 0.00 81 1013.8
20260508051913 43 259 0.0 0.0 0.00 0.00 0.00 80 1013.9
20260508051409 43 259 0.0 0.0 0.00 0.00 0.00 80 1013.7
20260508050904 43 259 0.0 0.0 0.00 0.00 0.00 78 1013.7
20260508050402 43 259 0.0 0.0 0.00 0.00 0.00 78 1013.8
20260508045857 44 245 0.0 2.0 0.00 0.00 0.00 76 1013.8
20260508045355 44 310 0.0 0.0 0.00 0.00 0.00 75 1014.0
20260508044853 44 286 0.0 0.0 0.00 0.00 0.00 76 1014.1
20260508044349 43 284 0.0 0.0 0.00 0.00 0.00 77 1013.8
20260508043845 43 284 0.0 0.0 0.00 0.00 0.00 78 1013.8
20260508043343 44 276 2.0 2.0 0.00 0.00 0.00 77 1013.6
20260508042839 44 284 0.0 0.0 0.00 0.00 0.00 76 1013.7
20260508042337 44 284 0.0 0.0 0.00 0.00 0.00 75 1014.2
20260508041833 43 284 0.0 0.0 0.00 0.00 0.00 77 1013.9
20260508041330 43 284 0.0 0.0 0.00 0.00 0.00 77 1014.0
20260508040826 43 284 0.0 0.0 0.00 0.00 0.00 77 1013.9
20260508040324 43 283 0.0 0.0 0.00 0.00 0.00 79 1013.7
20260508035821 44 298 0.0 0.0 0.00 0.00 0.00 78 1014.2
20260508035318 43 299 0.0 0.0 0.00 0.00 0.00 71 1013.8
20260508034815 43 299 0.0 0.0 0.00 0.00 0.00 72 1013.9
20260508034312 43 299 0.0 0.0 0.00 0.00 0.00 73 1013.8
20260508033809 43 299 0.0 0.0 0.00 0.00 0.00 74 1013.7
20260508033307 44 298 0.0 0.0 0.00 0.00 0.00 75 1013.6
20260508032804 43 302 0.0 0.0 0.00 0.00 0.00 70 1013.6
20260508032305 43 302 0.0 0.0 0.00 0.00 0.00 71 1013.8
20260508031758 43 302 0.0 0.0 0.00 0.00 0.00 75 1013.8
20260508031255 43 302 0.0 0.0 0.00 0.00 0.00 76 1013.7
20260508030751 42 302 0.0 0.0 0.00 0.00 0.00 76 1013.8
20260508030249 42 299 0.0 0.0 0.00 0.00 0.00 79 1013.7
20260508025745 43 299 0.0 0.0 0.00 0.00 0.00 79 1013.5
20260508025242 43 304 0.0 0.0 0.00 0.00 0.00 77 1013.7
20260508024738 43 304 0.0 0.0 0.00 0.00 0.00 76 1013.8
20260508024235 43 304 0.0 0.0 0.00 0.00 0.00 76 1013.8
20260508023732 44 295 0.0 0.0 0.00 0.00 0.00 77 1013.9
20260508023230 44 303 0.0 0.0 0.00 0.00 0.00 73 1013.8
20260508022725 44 303 0.0 0.0 0.00 0.00 0.00 73 1013.7
20260508022222 44 298 0.0 0.0 0.00 0.00 0.00 72 1013.8
20260508021719 44 299 0.0 0.0 0.00 0.00 0.00 73 1013.7
20260508021214 44 299 0.0 0.0 0.00 0.00 0.00 73 1013.6
20260508020712 44 299 0.0 0.0 0.00 0.00 0.00 71 1013.6
20260508020209 44 299 0.0 0.0 0.00 0.00 0.00 70 1013.5
20260508015706 44 298 0.0 0.0 0.00 0.00 0.00 69 1013.4
20260508015203 44 299 0.0 0.0 0.00 0.00 0.00 69 1013.5
20260508014700 44 299 0.0 0.0 0.00 0.00 0.00 69 1013.4
20260508014156 45 299 0.0 0.0 0.00 0.00 0.00 67 1013.4
20260508013652 46 298 0.0 0.0 0.00 0.00 0.00 66 1013.4
20260508013149 46 298 0.0 0.0 0.00 0.00 0.00 67 1013.2
20260508012647 47 296 0.0 0.0 0.00 0.00 0.00 64 1013.3
20260508012143 48 309 0.0 0.0 0.00 0.00 0.00 57 1013.5